Location: Freiburg+im+Breisgau
(48.0359°N, 7.8195°E)
Time: 08:24:15
(UTC+01:00)

ISS - Pass Details

Date: 14 November 2017
Orbit: 402 x 407 km, 51.6° (Epoch: 22 November)

Event Time Altitude Azimuth Distance (km) Brightness Sun altitude
Exits shadow 05:45:15 64° 264° (W) 450 -4.0 -18.1°
Maximum altitude 05:45:38 76° 207° (SSW) 419 -3.9 -18.0°
Drops below altitude 10° 05:48:53 10° 120° (ESE) 1,452 0.0 -17.5°
Sets 05:50:57 0° 119° (ESE) 2,308 1.3 -17.1°
